Grand Junction, CO

10:57 PM MDT on September 15, 2019 (GMT -0600)
Walker

Weather History for KGJT - April, 2019

Change the Weather History Date:

Tuesday, April 30, 2019

  Actual Average Record
Temperature  
Mean Temperature 51 °F 56 °F  
Max Temperature 60 °F 70 °F 89 °F (1992)
Min Temperature 42 °F 42 °F 25 °F (2017)
Degree Days  
Heating Degree Days 14 9  
Month to date heating degree days 289 402  
Since 1 July heating degree days 5397 5434  
Cooling Degree Days 0 0  
Month to date cooling degree days 1 3  
Year to date cooling degree days 1 3  
Growing Degree Days 1 (Base 50)    
Moisture  
Dew Point 42 °F    
Average Humidity 71    
Maximum Humidity 92    
Minimum Humidity 49    
Precipitation  
Precipitation 0.49 in 0.03 in 0.84 in (1899)
Month to date precipitation 1.32 0.91  
Year to date precipitation 5.05 2.95  
Snow  
Snow 0.00 in 0.00 in 0.40 in (2011)
Month to date snowfall T 0.9  
Since 1 July snowfall 17.4 19.0  
Snow Depth 0.00 in    
Sea Level Pressure  
Sea Level Pressure 29.72 in    
Wind  
Wind Speed 9 mph (West)    
Max Wind Speed 35 mph    
Max Gust Speed 47 mph    
Visibility 9 miles    
Events Rain , Thunderstorm    
T = Trace of Precipitation, MM = Missing Value Source: NWS Daily Summary

Daily Weather History Graph

Daily Weather History Graph

Search for Another Location

Airport or City:

Astronomy

Apr. 30, 2019 Rise Set
Actual Time 6:17 AM MDT 8:06 PM MDT
Civil Twilight 5:48 AM MDT 8:34 PM MDT
Nautical Twilight 5:13 AM MDT 9:09 PM MDT
Astronomical Twilight 4:36 AM MDT 9:47 PM MDT
Moon 4:32 AM MDT (4/30) 4:01 PM MDT (4/30)
Length of Visible Light 14h 46m
Length of Day
13h 48m
Waning Crescent, 17% of the Moon is Illuminated
Apr 30
Waning Crescent
May 4
New
May 11
First Quarter
May 18
Full
May 26
Last Quarter

Hourly Weather History & Observations

Time (MDT) Temp. Windchill Dew Point Humidity Pressure Visibility Wind Dir Wind Speed Gust Speed Precip Events Conditions
12:53 AM 48.0 °F - 44.1 °F 86% 29.69 in 10.0 mi ESE 12.7 mph - 0.00 in Rain Light Rain
1:53 AM 46.9 °F - 44.1 °F 90% 29.66 in 10.0 mi ESE 12.7 mph - 0.00 in   Clear
2:53 AM 50.0 °F - 41.0 °F 71% 29.60 in 10.0 mi ESE 16.1 mph 27.6 mph N/A   Overcast
3:07 AM 48.0 °F - 42.1 °F 80% 29.76 in 7.0 mi West 28.8 mph 40.3 mph 0.00 in Rain Light Rain
3:18 AM 46.9 °F - 44.1 °F 90% 29.80 in 4.0 mi West 18.4 mph 28.8 mph 0.08 in Rain Rain
3:25 AM 46.0 °F 40.6 °F 43.0 °F 89% 29.79 in 4.0 mi West 11.5 mph 24.2 mph 0.11 in Rain , Thunderstorm Rain
3:40 AM 46.0 °F 40.6 °F 42.1 °F 86% 29.79 in 10.0 mi West 11.5 mph 21.9 mph 0.13 in Rain Light Rain
3:53 AM 46.0 °F 42.5 °F 42.1 °F 86% 29.68 in 10.0 mi WNW 6.9 mph - 0.14 in Rain Light Rain
4:53 AM 45.0 °F 41.8 °F 42.1 °F 90% 29.68 in 10.0 mi NE 5.8 mph - 0.00 in Rain Light Rain
5:53 AM 45.0 °F 41.2 °F 42.1 °F 90% 29.70 in 10.0 mi ESE 6.9 mph - 0.01 in   Mostly Cloudy
6:53 AM 44.1 °F 42.5 °F 43.0 °F 96% 29.71 in 10.0 mi WSW 3.5 mph - N/A   Overcast
7:53 AM 45.0 °F 42.6 °F 43.0 °F 93% 29.72 in 10.0 mi NNW 4.6 mph - N/A   Overcast
8:53 AM 48.0 °F - 43.0 °F 83% 29.71 in 10.0 mi Calm Calm - N/A   Overcast
9:33 AM 44.1 °F 37.1 °F 41.0 °F 89% 29.82 in 5.0 mi West 15.0 mph 25.3 mph 0.00 in Rain Rain
9:45 AM 43.0 °F 35.1 °F 41.0 °F 93% 29.82 in 2.5 mi West 17.3 mph 24.2 mph 0.05 in Rain Rain
9:53 AM 42.1 °F 35.2 °F 41.0 °F 96% 29.77 in 2.5 mi West 12.7 mph 23.0 mph 0.09 in Rain Rain
10:00 AM 43.0 °F 37.2 °F 42.1 °F 97% 29.83 in 3.0 mi West 10.4 mph - 0.02 in Rain Rain
10:53 AM 46.0 °F 39.9 °F 42.1 °F 86% 29.78 in 10.0 mi West 13.8 mph - 0.06 in Rain Light Rain
11:53 AM 48.9 °F - 41.0 °F 74% 29.77 in 10.0 mi Calm Calm - 0.00 in   Scattered Clouds
12:53 PM 51.1 °F - 42.1 °F 71% 29.76 in 10.0 mi ESE 4.6 mph - N/A   Mostly Cloudy
1:53 PM 55.0 °F - 43.0 °F 64% 29.74 in 10.0 mi Variable 4.6 mph - N/A   Scattered Clouds
2:53 PM 57.0 °F - 42.1 °F 57% 29.72 in 10.0 mi Variable 3.5 mph - N/A   Mostly Cloudy
3:53 PM 60.1 °F - 43.0 °F 53% 29.68 in 10.0 mi SE 8.1 mph - N/A   Scattered Clouds
4:53 PM 60.1 °F - 41.0 °F 49% 29.63 in 10.0 mi East 8.1 mph - N/A   Clear
5:53 PM 57.9 °F - 43.0 °F 58% 29.62 in 10.0 mi SSE 19.6 mph 28.8 mph N/A   Scattered Clouds
6:42 PM 57.0 °F - 42.1 °F 57% 29.67 in 10.0 mi SE 23.0 mph 32.2 mph 0.00 in Thunderstorm Overcast
6:53 PM 57.9 °F - 42.1 °F 56% 29.58 in 10.0 mi SW 19.6 mph 31.1 mph 0.00 in Thunderstorm Overcast
6:58 PM 54.0 °F - 42.1 °F 64% 29.71 in 10.0 mi WNW 20.7 mph 31.1 mph N/A Thunderstorm Overcast
7:08 PM 52.0 °F - 43.0 °F 71% 29.73 in 10.0 mi West 11.5 mph 26.5 mph 0.00 in Rain , Thunderstorm Light Rain
7:22 PM 48.9 °F - 42.1 °F 77% 29.72 in 10.0 mi NNW 9.2 mph - 0.00 in   Overcast
7:53 PM 50.0 °F - 43.0 °F 77% 29.64 in 10.0 mi WNW 11.5 mph - 0.00 in   Mostly Cloudy
8:53 PM 50.0 °F - 43.0 °F 77% 29.64 in 10.0 mi SW 5.8 mph - N/A   Mostly Cloudy
9:53 PM 51.1 °F - 41.0 °F 68% 29.65 in 10.0 mi SE 19.6 mph 26.5 mph N/A   Mostly Cloudy
10:48 PM 46.4 °F 37.4 °F 39.2 °F 76% 29.79 in 7.0 mi NW 28.8 mph 47.2 mph 0.00 in Rain Light Rain
10:53 PM 45.0 °F 35.6 °F 39.9 °F 82% 29.74 in 5.0 mi NW 27.6 mph 47.2 mph 0.00 in Rain Light Rain
11:00 PM 45.0 °F 35.8 °F 41.0 °F 86% 29.81 in 6.0 mi NW 26.5 mph 35.7 mph 0.01 in Rain Rain
11:53 PM 45.0 °F 39.3 °F 43.0 °F 93% 29.78 in 8.0 mi WNW 11.5 mph - 0.10 in Rain Light Rain